Unicom:                    122.8

AWOS:                  118.275

Elevation           1458’ MSL

TPA:                   2500’ MSL

06/24:         5003’ L   75’ W

PAPI:       06/Left     24/Left

(Operate lights on unicom freq.)

Traffic Pattern: Left

Beacon: Sunset to Sunrise

Windsock: yes, lighted

Segmented Circle: No

 

Cleveland Center: 126.72/291.65

FSS: Altoona

[Source: ADDS]
METAR
KFKL 121756Z AUTO 34007KT 290V040 9SM FEW016 BKN042 OVC050 M04/M08 A3009 RMK AO2 SNE53 SLP210 P0000 60000 T10391083 11011 21044 53007 FZRANO =
KFKL 121738Z 1218/1318 33010KT 2SM -SN BKN025 FM130000 33012G20KT 5SM -SN BKN025 FM130500 29008KT 6SM -SN BKN025 FM131500 24005KT P6SM OVC050
TAF
KFKL 121738Z 1218/1318 33010KT 2SM -SN BKN025 FM130000 33012G20KT 5SM -SN BKN025 FM130500 29008KT 6SM -SN BKN025 FM131500 24005KT P6SM OVC050 =
[Source: ADDS]
METAR
KDUJ 121753Z AUTO 34008KT 10SM FEW018 SCT025 BKN033 M04/M08 A3000 RMK AO2 SNE1656B17E47 SLP179 P0001 60001 T10391083 11039 21056 50003 =
KDUJ 121738Z 1218/1318 35008G18KT 1/2SM SN BKN009 TEMPO 1218/1222 4SM -SN BKN025 FM122200 35012G20KT 4SM -SN OVC015 FM130100 33012G20KT 5SM -SN BKN025 FM130900 27007KT P6SM OVC025
TAF
KDUJ 121738Z 1218/1318 35008G18KT 1/2SM SN BKN009 TEMPO 1218/1222 4SM -SN BKN025 FM122200 35012G20KT 4SM -SN OVC015 FM130100 33012G20KT 5SM -SN BKN025 FM130900 27007KT P6SM OVC025 =

Welcome to Clarion County Airport.

We look forward to serving all of your aviation needs.


Clarion County Airport is a General Aviation, Business Class airport serving the Clarion County Area in Central Western Pennsylvania.  Our 5,003' asphalt runway and gps approaches are capable of serving most of the general aviation fleet in most weather conditions.


If you are planning a fuel stop while flying in Western Pennsylvania, consider paying us a visit. Our prices are some of the lowest in the state Check prices here ----> www.airnav.com/fuel and enter identifier KAXQ or see current prices below. We can have you fueled and taxiing out to the runway in about 10 minutes. Our current hours of operation are Monday- Saturday 8:00AM-4:00PM. The FBO building will be closed on Sundays until March 1st, 2019. Holiday closures are Christmas Day and Thanksgiving. If you require use of the facilities during the holidays or after hours please call ahead and someone will be there to assist you.


- Airport Manager -  


                             CURRENT FUEL PRICES AS OF 1/4/19      JET-A w/additive    $3.79               100LL     $4.65 CC   Cash $4.52


                              Self Service fueling available 24/7, credit card reader enabled. Center point fueling available upon request.

                                                           For after hours fueling assistance please contact 814-282-6001.